[[{"header":{"parameterUnit":"m.s-1","parameterCategory":1,"la1":30.2991,"la2":30.254,"lo1":-89.0895,"lo2":-89.0444,"dy":0.0017,"dx":0.0017,"nx":28,"ny":28,"refTime":"2023-07-23T09:00:00:Z","depth":0,"parameterNumber":2,"parameterNumberName":"U-component_of_WINDS"},"data":[0,0,0,0,0,0,0,0,0,0,0,0,0,0,0,0,0,0,0,0,0,0,0,0,0,0,0,0,0,0,0,0,0,0,0,0,0,0,0,0,0,0,0,0,0,0,0,0,0,0,0,0,0,0,0,0,0,0,1.7061,1.7062,0,1.7148,1.7149,1.715,1.71,1.7097,1.7095,1.7092,1.7183,1.7187,1.7192,0,0,0,0,0,0,0,0,0,0,0,0,0,1.6854,1.6858,1.7061,1.7062,1.7063,1.7148,1.7149,1.715,1.71,1.7097,1.7094,1.7091,1.7181,1.7187,1.7192,0,0,0,0,0,0,0,0,0,0,0,0,0,1.6943,1.6859,1.7061,1.7048,1.7048,1.7148,1.7149,1.7151,1.7101,1.7097,1.7093,1.709,1.7179,1.7186,1.7193,1.731,0,0,1.7215,1.7218,0,0,0,0,0,0,0,0,1.6938,1.695,1.7049,1.7049,1.7049,1.7109,1.7109,1.7204,1.7102,1.7081,1.7092,1.7088,1.7161,1.717,1.7194,1.7314,1.7318,1.7215,1.7219,1.7223,1.7224,0,0,0,0,0,0,0,1.6932,1.6946,1.7095,1.7051,1.7051,1.7039,1.7048,1.7127,1.7141,1.7082,1.7079,1.709,1.7161,1.7187,1.7196,1.732,1.7215,1.7221,1.7226,1.7228,1.7543,1.7547,0,0,0,0,0,0,1.6926,1.6942,1.7093,1.7098,1.6983,1.7046,1.7055,1.7094,1.714,1.7143,1.7093,1.7087,1.7177,1.7188,1.7199,1.734,1.7222,1.7229,1.7233,1.7539,1.7544,1.7548,0,0,0,0,0,0,1.6922,1.694,1.7089,1.7019,1.7037,1.7053,1.7097,1.7097,1.7124,1.7148,1.715,1.7117,1.7175,1.7189,1.7283,1.7343,1.7232,1.7239,1.7534,1.754,1.7546,1.7623,0,0,0,0,0,0,1.6916,1.6939,1.6983,1.702,1.7041,1.7172,1.71,1.7102,1.7136,1.7129,1.7171,1.7175,1.7173,1.7273,1.729,1.735,1.7244,1.7529,1.7537,1.7544,1.7616,1.7631,1.7645,0,0,0,0,0,1.6909,1.7001,1.6985,1.7004,1.7096,1.7175,1.7187,1.7183,1.7141,1.7186,1.7202,1.7173,1.7333,1.7283,1.7302,1.7365,1.7525,1.7534,1.7544,1.7609,1.7628,1.7645,0,0,0,0,0,0,1.6969,1.7005,1.6988,1.7095,1.7132,1.7166,1.7222,1.7203,1.7253,1.7245,1.7238,1.7248,1.7346,1.7365,1.7309,1.7482,1.7423,1.7436,1.7466,1.7485,1.7499,1.7493,1.725,0,0,0,0,0,1.6995,1.7056,1.7084,1.7175,1.7195,1.7206,1.724,1.7234,1.7272,1.7288,1.731,1.7349,1.7409,1.7448,1.7503,1.7618,1.7628,1.7671,1.7686,1.7698,1.771,1.7774,1.7794,1.7579,1.7579,1.7579,0,0,1.7049,1.7076,1.7114,1.7188,1.7216,1.728,1.7219,1.7289,1.7337,1.7298,1.7389,1.7408,1.7451,1.7557,1.7604,1.7575,1.7771,1.771,1.7719,1.7724,1.7786,1.7806,1.7824,1.7585,1.7584,1.7583,0,0,1.7179,1.7205,1.7285,1.7315,1.7359,1.7366,1.7385,1.7423,1.7434,1.7525,1.7498,1.7555,1.7657,1.769,1.7719,1.7865,1.7842,1.7884,1.7961,1.8023,1.804,1.8055,1.8109,1.8128,1.7896,1.7896,1.7896,0,1.724,1.7335,1.7329,1.7401,1.7435,1.7404,1.7486,1.7515,1.7575,1.76,1.7567,1.7695,1.7722,1.7836,1.7872,1.7897,1.792,1.7879,1.8038,1.8053,1.8067,1.8118,1.8138,1.7901,1.79,1.79,1.7899,0,1.7409,1.7475,1.7534,1.7594,1.7634,1.7711,1.7718,1.776,1.7751,1.7762,1.7856,1.7888,1.795,1.7977,1.7968,1.8091,1.8071,1.8039,1.7979,1.8093,1.814,1.816,1.7908,1.7906,1.7904,1.7903,0,0,1.7578,1.7635,1.7657,1.7684,1.7731,1.7783,1.7859,1.792,1.7958,1.8001,1.8065,1.8153,1.8124,1.8158,1.8153,1.8208,1.8324,1.8169,1.817,1.8197,1.8462,1.8487,1.851,1.8309,1.8312,1.8315,1.8459,0,1.7712,1.7845,1.7843,1.7967,1.8029,1.8002,1.8068,1.8105,1.8118,1.8174,1.8188,1.8251,1.8207,1.8228,1.8281,1.8298,1.8377,1.8288,1.837,1.8373,1.836,1.8534,1.856,1.8694,1.8477,1.8481,1.8483,0,1.7886,1.7936,1.8066,1.8106,1.8132,1.8192,1.8249,1.8302,1.8344,1.835,1.839,1.8377,1.8456,1.8394,1.8504,1.8444,1.8477,1.8491,1.8496,1.8504,1.8435,1.8547,1.8736,1.8757,1.8512,1.851,1.8507,0,1.7998,1.8097,1.8189,1.8213,1.8262,1.8305,1.8327,1.8366,1.8404,1.8454,1.8479,1.8538,1.857,1.8617,1.8621,1.8575,1.8732,1.867,1.874,1.874,1.8774,1.8772,1.8972,1.8795,1.8795,1.8794,1.8794,0,1.8148,1.8229,1.824,1.8296,1.8386,1.8384,1.8474,1.8493,1.8528,1.8588,1.8568,1.8625,1.8627,1.8686,1.869,1.8781,1.8795,1.8803,1.8803,1.8805,1.8804,1.8827,1.8818,1.88,1.8799,1.8797,1.8797,0,1.8288,1.8298,1.8396,1.8435,1.8447,1.8512,1.8546,1.86,1.8612,1.8689,1.8707,1.8726,1.8794,1.8803,1.8883,1.8885,1.8996,1.8986,1.8981,1.898,1.905,1.9043,1.9272,1.9302,1.9105,1.9107,1.9108,0,1.8384,1.8445,1.8492,1.8531,1.8556,1.8618,1.8657,1.8658,1.87,1.8754,1.8802,1.8869,1.8922,1.9033,1.9054,1.9116,1.9108,1.9184,1.9117,1.9117,1.911,1.9106,1.9113,1.9196,1.9198,1.92,1.9202,0,1.8552,1.8555,1.8611,1.8671,1.8718,1.8764,1.8808,1.8841,1.8848,1.8896,1.8966,1.9007,1.909,1.9157,1.9218,1.9242,1.9224,1.9223,1.9242,1.9245,1.924,1.9245,1.9017,1.9217,1.9216,1.9215,1.9214,1.9213,1.8673,1.8728,1.8769,1.8834,1.8867,1.8909,1.8963,1.8982,1.904,1.9107,1.9104,1.9182,1.9225,1.9305,1.9334,1.9396,1.9371,1.9399,1.9406,1.9413,1.942,1.9231,1.9407,1.9406,1.9406,1.9405,1.9405,0,1.8842,1.8867,1.8927,1.8989,1.9041,1.9019,1.9067,1.9112,1.918,1.9222,1.9275,1.9357,1.9422,1.9449,1.9514,1.9558,1.9552,1.9575,1.9572,1.9578,1.9438,1.9415,1.9579,1.9579,1.9579,1.9579,1.9579,1.9579,1.8935,1.9027,1.9035,1.9143,1.9169,1.9245,1.9274,1.9314,1.9347,1.9439,1.9493,1.9511,1.9547,1.9615,1.9674,1.9681,1.9706,1.9734,1.9736,1.9605,1.9588,1.9571,1.9549,1.9739,1.9739,1.9871,1.9872,1.9873]},{"header":{"parameterUnit":"m.s-1","parameterCategory":1,"la1":30.2991,"la2":30.254,"lo1":-89.0895,"lo2":-89.0444,"dy":0.0017,"dx":0.0017,"nx":28,"ny":28,"refTime":"2023-07-23T09:00:00:Z","depth":0,"parameterNumber":3,"parameterNumberName":"V-component_of_WINDS"},"data":[0,0,0,0,0,0,0,0,0,0,0,0,0,0,0,0,0,0,0,0,0,0,0,0,0,0,0,0,0,0,0,0,0,0,0,0,0,0,0,0,0,0,0,0,0,0,0,0,0,0,0,0,0,0,0,0,0,0,-0.8767,-0.8766,0,-0.8737,-0.8737,-0.8737,-0.879,-0.8792,-0.8794,-0.8796,-0.8762,-0.8759,-0.8757,0,0,0,0,0,0,0,0,0,0,0,0,0,-0.8866,-0.8864,-0.8767,-0.8766,-0.8766,-0.8738,-0.8737,-0.8737,-0.879,-0.8792,-0.8794,-0.8796,-0.8762,-0.8759,-0.8756,0,0,0,0,0,0,0,0,0,0,0,0,0,-0.8828,-0.8863,-0.8767,-0.8789,-0.8791,-0.8738,-0.8737,-0.8737,-0.879,-0.8792,-0.8795,-0.8797,-0.8763,-0.876,-0.8756,-0.8678,0,0,-0.8744,-0.8742,0,0,0,0,0,0,0,0,-0.883,-0.8825,-0.8786,-0.8788,-0.8789,-0.877,-0.876,-0.8717,-0.8789,-0.879,-0.8796,-0.8799,-0.8762,-0.8759,-0.8747,-0.8676,-0.8675,-0.8744,-0.8741,-0.874,-0.8739,0,0,0,0,0,0,0,-0.8833,-0.8826,-0.8755,-0.8786,-0.8788,-0.88,-0.8798,-0.8752,-0.8761,-0.879,-0.8794,-0.879,-0.8763,-0.8751,-0.8747,-0.8675,-0.8744,-0.874,-0.8738,-0.8737,-0.8539,-0.8536,0,0,0,0,0,0,-0.8833,-0.8828,-0.8756,-0.8754,-0.8817,-0.8796,-0.8793,-0.8774,-0.8762,-0.8763,-0.8788,-0.8793,-0.8756,-0.8751,-0.8746,-0.8653,-0.874,-0.8736,-0.8734,-0.8542,-0.8538,-0.8535,0,0,0,0,0,0,-0.8835,-0.8826,-0.8757,-0.8792,-0.8784,-0.8791,-0.8769,-0.8772,-0.8759,-0.876,-0.8762,-0.8773,-0.8758,-0.8751,-0.8695,-0.8652,-0.8734,-0.8731,-0.8545,-0.8541,-0.8537,-0.8466,0,0,0,0,0,0,-0.8838,-0.8827,-0.8797,-0.8791,-0.8782,-0.8707,-0.8766,-0.8769,-0.8752,-0.8759,-0.8747,-0.8747,-0.8759,-0.87,-0.8691,-0.8648,-0.8728,-0.8549,-0.8543,-0.8538,-0.8472,-0.846,-0.845,0,0,0,0,0,-0.8841,-0.8778,-0.8796,-0.8787,-0.8746,-0.8704,-0.8699,-0.8716,-0.8749,-0.8719,-0.872,-0.8747,-0.8659,-0.8694,-0.8684,-0.864,-0.8552,-0.8545,-0.8538,-0.8478,-0.8463,-0.845,0,0,0,0,0,0,-0.8777,-0.8777,-0.8797,-0.873,-0.8717,-0.8714,-0.8676,-0.8699,-0.8675,-0.8682,-0.8703,-0.87,-0.8639,-0.8634,-0.8673,-0.8564,-0.8611,-0.8602,-0.8568,-0.8554,-0.8543,-0.8543,-0.8725,0,0,0,0,0,-0.8756,-0.8723,-0.8725,-0.8666,-0.8658,-0.8669,-0.8651,-0.8665,-0.8652,-0.8646,-0.8643,-0.8628,-0.8597,-0.8576,-0.8548,-0.8474,-0.8471,-0.8439,-0.8427,-0.8418,-0.8408,-0.8368,-0.8353,-0.8513,-0.8513,-0.8514,0,0,-0.871,-0.8706,-0.8684,-0.8653,-0.8644,-0.8609,-0.8663,-0.8623,-0.8597,-0.864,-0.8586,-0.8584,-0.8569,-0.8503,-0.8474,-0.8497,-0.8365,-0.8409,-0.8402,-0.8398,-0.836,-0.8345,-0.8331,-0.8509,-0.851,-0.851,0,0,-0.8607,-0.8602,-0.8552,-0.8543,-0.8531,-0.8538,-0.8527,-0.852,-0.852,-0.8468,-0.8499,-0.8468,-0.8415,-0.8402,-0.8389,-0.8286,-0.8309,-0.8276,-0.8214,-0.8175,-0.8162,-0.8151,-0.8112,-0.8098,-0.8268,-0.8267,-0.8267,0,-0.8551,-0.85,-0.8523,-0.8481,-0.8466,-0.8506,-0.8455,-0.8445,-0.8423,-0.8411,-0.8439,-0.8373,-0.8366,-0.8297,-0.8272,-0.8261,-0.8247,-0.8275,-0.8163,-0.8152,-0.8142,-0.8105,-0.809,-0.8263,-0.8264,-0.8264,-0.8265,0,-0.8431,-0.8395,-0.8356,-0.8335,-0.8317,-0.827,-0.8285,-0.8263,-0.8281,-0.8285,-0.8231,-0.8224,-0.8195,-0.8181,-0.8196,-0.8115,-0.8129,-0.816,-0.8207,-0.8122,-0.8087,-0.8073,-0.8257,-0.8259,-0.826,-0.8261,0,0,-0.8283,-0.8278,-0.8263,-0.8254,-0.8245,-0.8217,-0.8173,-0.8146,-0.8126,-0.8111,-0.8073,-0.8028,-0.8057,-0.8042,-0.8057,-0.8023,-0.7939,-0.8057,-0.8057,-0.8033,-0.7847,-0.7821,-0.7804,-0.7957,-0.7954,-0.7952,-0.7847,0,-0.818,-0.8104,-0.8125,-0.8049,-0.8015,-0.8055,-0.8016,-0.8006,-0.801,-0.7981,-0.7986,-0.7953,-0.7994,-0.7985,-0.7954,-0.7956,-0.7901,-0.7964,-0.7919,-0.7917,-0.7918,-0.7787,-0.776,-0.766,-0.7834,-0.7832,-0.783,0,-0.8048,-0.8029,-0.795,-0.7947,-0.7933,-0.7898,-0.7876,-0.7849,-0.7838,-0.7844,-0.7828,-0.7851,-0.7807,-0.7858,-0.7796,-0.7838,-0.7822,-0.7821,-0.7817,-0.781,-0.7865,-0.7773,-0.763,-0.7613,-0.7809,-0.7811,-0.7813,0,-0.7945,-0.79,-0.7847,-0.7838,-0.7834,-0.7808,-0.7805,-0.7797,-0.778,-0.7761,-0.7749,-0.7725,-0.771,-0.7691,-0.7706,-0.7742,-0.7641,-0.7693,-0.7642,-0.7641,-0.7615,-0.7616,-0.7464,-0.7611,-0.7611,-0.7611,-0.7612,0,-0.7825,-0.7774,-0.78,-0.7767,-0.7711,-0.7737,-0.7681,-0.7682,-0.7675,-0.7642,-0.7676,-0.7644,-0.7668,-0.7638,-0.765,-0.7596,-0.7591,-0.7592,-0.7595,-0.7587,-0.7586,-0.7573,-0.7579,-0.7608,-0.7608,-0.7609,-0.761,0,-0.7698,-0.7714,-0.7658,-0.766,-0.7659,-0.7618,-0.7619,-0.7588,-0.7596,-0.7554,-0.7546,-0.7558,-0.7525,-0.7539,-0.7504,-0.7512,-0.7442,-0.7456,-0.7446,-0.7448,-0.7395,-0.7398,-0.7225,-0.7203,-0.7368,-0.7367,-0.7365,0,-0.7618,-0.7581,-0.7579,-0.756,-0.7555,-0.7524,-0.7508,-0.7532,-0.7513,-0.7499,-0.7469,-0.744,-0.7417,-0.7362,-0.7367,-0.734,-0.7352,-0.7293,-0.7347,-0.734,-0.7347,-0.7348,-0.7343,-0.7281,-0.7279,-0.7277,-0.7276,0,-0.7475,-0.7485,-0.746,-0.7438,-0.7418,-0.7402,-0.7388,-0.737,-0.7394,-0.7371,-0.7339,-0.7321,-0.7287,-0.7256,-0.7233,-0.7229,-0.7255,-0.726,-0.7246,-0.7235,-0.7229,-0.7229,-0.7412,-0.7262,-0.7264,-0.7265,-0.7265,-0.7266,-0.7367,-0.7335,-0.7329,-0.7301,-0.7294,-0.7281,-0.7252,-0.7257,-0.7231,-0.7205,-0.7222,-0.7183,-0.7174,-0.7147,-0.714,-0.7109,-0.7132,-0.7112,-0.7107,-0.7101,-0.7092,-0.7238,-0.7105,-0.7106,-0.7106,-0.7107,-0.7107,0,-0.7222,-0.7222,-0.7195,-0.7176,-0.7154,-0.7184,-0.7171,-0.715,-0.7116,-0.7107,-0.7084,-0.7047,-0.7018,-0.7022,-0.6996,-0.697,-0.6982,-0.6962,-0.6962,-0.696,-0.7075,-0.7088,-0.6953,-0.6953,-0.6953,-0.6953,-0.6953,-0.6953,-0.7144,-0.7091,-0.7102,-0.7046,-0.7045,-0.7009,-0.6998,-0.6986,-0.6979,-0.6936,-0.6913,-0.6917,-0.6913,-0.6887,-0.6861,-0.6864,-0.685,-0.6826,-0.6832,-0.6937,-0.6952,-0.6967,-0.6979,-0.6824,-0.6824,-0.6719,-0.6718,-0.6718]}]]